PEGASUS DEB, 24082

Orbit data source: Space-Track

PEGASUS DEB, 24082 is space debris in LEO originally from a launch on Thu, 19 May 1994 UTC launched from the Air Force Western Test Range (AFWTR). Debris objects in space refer to the collection of defunct objects orbiting the Earth. Examples of debris include non-operational satellites, rocket bodies, and fragments generated from explosions, collisions, or faulty payload assembly.

Loading next visibility...
Identifier
24082, 1994-029ED
Orbit
LEO
Country
Flag of USUS
Related business
Manufacturer
Unknown
Mission
Spacecraft
Bus & Motor
Unknown
Mass
Unknown
Launch date (UTC)
1994-05-19 (32 years ago)
Launch vehicle
Unknown
Launch site
Air Force Western Test Range (AFWTR)
Object type
Payload
Rocket body
Debris
Shape & HBR
Unknown shape, 0.1 m
Radar Cross Section
Medium (>0.1 m² and <1 m²)

Expand to show TLE details & history
Last TLE update: 7 hours ago

TLE from 7 hours ago
0 PEGASUS DEB
1 24082U 94029ED  26062.46870186  .00011562  00000-0  59609-3 0  9993
2 24082  81.9089  89.8547 0043330 203.2720 156.6551 15.15413352604327
Epoch: 2026-03-03T11:14Z
TLE epoch observation values (Epoch: 2026-03-03T11:14:55.840Z)
Latitude
-0°
Longitude
119.87471°
Altitude
550.255 km
Speed
7.572 km/s
True Right ascension
05h 59m 25s
True Declination
0° 00' 00"
Sunlit
Object was in daylight at epoch
Visualization orbit readout
Latitude
Unknown
Longitude
Unknown
Altitude
Unknown
Speed
Unknown
Apparent Right ascension
Unknown
Apparent Declination
Unknown
Sunlit
N/A
Visualization observer readout
Local Sidereal Time
22:04:04
Azimuth
Unknown
Elevation
Unknown
Doppler factor
Unknown
Orbital elements
Apogee altitude
546.602 km
Perigee altitude
486.851 km
Semi-major axis
6,894.863 km
Eccentricity
0.00433
Inclination
81.9089°
RAAN
89.8547°
Arg. of periapsis
203.272°
True anomaly
156.85088°
Mean anomaly
156.6551°
Eccentric anomaly
156.75309°
Mean motion
3.79101 °/min
Orbital period
94.96 mins
BSTAR
0.00059609
Loading maneuver chart data...
Computing Atmospheric mass density...
Loading historical data...
Loading historical data...
Loading historical data...
Loading historical data...
Loading historical data...
Loading historical data...
Loading historical data...

Documentation

Showing up to 5 results
|